Location: Gwatt
(46.7204°N, 7.6223°E)
Time: 13:09:28
(UTC+00:00)

Tiros 1 - Visible Passes

Search period start: 25 January 2021 00:00
Search period end: 04 February 2021 00:00
Orbit: 630 x 663 km, 48.4° (Epoch: 24 January)

Date Brightness Start Highest point End Pass type
(mag) Time Alt. Az. Time Alt. Az. Time Alt. Az.
25 Jan 7.0 18:21:47 10° WSW 18:26:27 89° NNW 18:27:22 58° ENE visible
25 Jan 9.9 20:04:11 10° W 20:05:02 15° W 20:05:02 15° W visible
26 Jan 7.4 17:05:46 10° SW 17:10:20 59° SSE 17:14:40 11° ENE visible
26 Jan 7.2 18:47:53 10° W 18:52:19 72° NNW 18:52:19 72° NNW visible
27 Jan 7.1 17:31:38 10° WSW 17:36:17 88° SSE 17:39:36 19° ENE visible
27 Jan 8.1 19:14:00 10° W 19:17:15 44° WNW 19:17:15 44° WNW visible
28 Jan 7.1 17:57:41 10° W 18:02:21 74° N 18:04:31 31° ENE visible
28 Jan 9.1 19:40:05 10° WNW 19:42:11 27° WNW 19:42:11 27° WNW visible
29 Jan 7.1 18:23:49 10° W 18:28:28 71° N 18:29:28 52° ENE visible
29 Jan 9.8 20:06:07 10° WNW 20:07:07 16° WNW 20:07:07 16° WNW visible
30 Jan 7.2 17:07:30 10° W 17:12:10 76° N 17:16:45 10° ENE visible
30 Jan 7.0 18:49:54 10° WNW 18:54:25 80° NNW 18:54:25 80° NNW visible
31 Jan 7.2 17:33:37 10° W 17:38:17 71° N 17:41:44 18° E visible
31 Jan 7.9 19:15:56 10° WNW 19:19:24 48° W 19:19:24 48° W visible
01 Feb 7.0 17:59:43 10° WNW 18:04:23 80° NNE 18:06:46 28° E visible
01 Feb 9.0 19:42:02 10° WNW 19:44:27 27° W 19:44:27 27° W visible
02 Feb 7.1 18:25:45 10° WNW 18:30:24 76° SSW 18:31:52 43° SE visible
02 Feb 9.8 20:08:25 10° W 20:09:33 15° W 20:09:33 15° W visible
03 Feb 7.1 17:09:31 10° WNW 17:14:12 79° N 17:18:51 10° E visible
03 Feb 7.8 18:51:50 10° WNW 18:56:17 46° SSW 18:57:03 42° S visible
